This is the latest recevied weather packets stored in our database for station/object KC8YYF. If no packets are shown the sender has not sent any weather packets the latest 10 day(s).
| Time | Temp. | Humidity | Pressure | Rain* | Wind** | Luminosity | Snow |
|---|---|---|---|---|---|---|---|
| 1777614009 | 3.89° C | 91% | 1015.4 hPa | 0 mm | - | 0 W/m² | - |
| 1777613705 | 3.89° C | 91% | 1015.5 hPa | 0 mm | - | 0 W/m² | - |
| 1777613402 | 3.89° C | 91% | 1015.7 hPa | 0 mm | - | 0 W/m² | - |
| 1777613098 | 4.44° C | 91% | 1015.5 hPa | 0 mm | - | 0 W/m² | - |
| 1777612795 | 4.44° C | 91% | 1015.7 hPa | 0 mm | - | 0 W/m² | - |
| 1777612491 | 4.44° C | 91% | 1015.7 hPa | 0 mm | - | 0 W/m² | - |
| 1777612187 | 4.44° C | 89% | 1015.6 hPa | 0 mm | - | 0 W/m² | - |
| 1777611882 | 4.44° C | 88% | 1015.8 hPa | 0 mm | - | 0 W/m² | - |
| 1777611578 | 4.44° C | 88% | 1015.5 hPa | 0 mm | - | 0 W/m² | - |
| 1777611274 | 5° C | 88% | 1015.4 hPa | 0 mm | - | 0 W/m² | - |
| 1777610972 | 5° C | 87% | 1015.7 hPa | 0 mm | - | 0 W/m² | - |
| 1777610667 | 5° C | 85% | 1015.6 hPa | 0 mm | - | 0 W/m² | - |
| 1777610366 | 5.56° C | 82% | 1015.5 hPa | 0 mm | - | 0 W/m² | - |
| 1777610063 | 5.56° C | 79% | 1015.4 hPa | 0 mm | - | 0 W/m² | - |
| 1777609760 | 5.56° C | 78% | 1015.4 hPa | 0 mm | - | 0 W/m² | - |
| 1777609456 | 5.56° C | 78% | 1015.6 hPa | 0 mm | - | 0 W/m² | - |
| 1777609154 | 5° C | 82% | 1015.5 hPa | 0 mm | - | 0 W/m² | - |
| 1777608851 | 5.56° C | 87% | 1015.6 hPa | 0 mm | - | 0 W/m² | - |
| 1777608548 | 5.56° C | 85% | 1015.6 hPa | 0 mm | - | 0 W/m² | - |
| 1777608245 | 5.56° C | 85% | 1015.7 hPa | 0 mm | - | 0 W/m² | - |
| 1777607943 | 5.56° C | 84% | 1015.6 hPa | 0 mm | - | 0 W/m² | - |
| 1777607637 | 5.56° C | 84% | 1016 hPa | 0 mm | - | 0 W/m² | - |
| 1777607335 | 5.56° C | 84% | 1015.9 hPa | 0 mm | - | 0 W/m² | - |
| 1777607030 | 5.56° C | 84% | 1016.1 hPa | 0 mm | - | 0 W/m² | - |
| 1777606726 | 5.56° C | 85% | 1016.1 hPa | 0 mm | - | 0 W/m² | - |
* Rain latest hour (hover to see other rain measurements)
** Current wind speed in m/s (hover to see current wind gust speed)